Time,TemperatureF,DewpointF,PressureIn,WindDirection,WindDirectionDegrees,WindSpeedMPH,WindSpeedGustMPH,Humidity,HourlyPrecipIn,Conditions,Clouds,dailyrainin,SoftwareType,DateUTC
2013-02-10 00:07:00,38.1,36.0,29.39,ESE,120,9.0,12.0,90,0.05,,,0.10,weatherlink.com 1.10,2013-02-10 06:07:00,
2013-02-10 00:22:00,38.1,36.0,29.39,SE,137,5.0,13.0,90,0.05,,,0.12,weatherlink.com 1.10,2013-02-10 06:22:00,
2013-02-10 00:37:00,37.9,36.0,29.38,ESE,107,3.0,12.0,91,0.05,,,0.13,weatherlink.com 1.10,2013-02-10 06:37:00,
2013-02-10 00:52:00,38.0,36.0,29.36,SE,128,4.0,13.0,91,0.04,,,0.13,weatherlink.com 1.10,2013-02-10 06:52:00,
2013-02-10 01:07:00,38.2,36.0,29.35,SE,130,4.0,14.0,91,0.03,,,0.14,weatherlink.com 1.10,2013-02-10 07:07:00,
2013-02-10 01:22:00,38.3,36.0,29.34,East,89,8.0,14.0,92,0.04,,,0.16,weatherlink.com 1.10,2013-02-10 07:22:00,
2013-02-10 01:37:00,38.5,36.0,29.32,SE,131,9.0,16.0,92,0.05,,,0.18,weatherlink.com 1.10,2013-02-10 07:37:00,
2013-02-10 01:52:00,38.8,36.0,29.31,ESE,102,10.0,13.0,91,0.07,,,0.20,weatherlink.com 1.10,2013-02-10 07:52:00,
2013-02-10 02:07:00,39.0,36.0,29.31,SSE,167,9.0,17.0,90,0.06,,,0.20,weatherlink.com 1.10,2013-02-10 08:07:00,
2013-02-10 02:22:00,39.1,37.0,29.31,SE,127,8.0,13.0,90,0.04,,,0.20,weatherlink.com 1.10,2013-02-10 08:22:00,
2013-02-10 02:37:00,39.1,36.0,29.30,SE,127,7.0,12.0,89,0.03,,,0.21,weatherlink.com 1.10,2013-02-10 08:37:00,
2013-02-10 02:52:00,39.3,36.0,29.30,ESE,107,8.0,12.0,88,0.02,,,0.22,weatherlink.com 1.10,2013-02-10 08:52:00,
2013-02-10 03:07:00,39.5,36.0,29.30,ESE,114,5.0,11.0,88,0.02,,,0.00,weatherlink.com 1.10,2013-02-10 09:07:00,
2013-02-10 03:22:00,39.6,36.0,29.29,SE,143,5.0,13.0,88,0.02,,,0.00,weatherlink.com 1.10,2013-02-10 09:22:00,
2013-02-10 03:37:00,39.6,36.0,29.28,ESE,121,7.0,11.0,88,0.02,,,0.01,weatherlink.com 1.10,2013-02-10 09:37:00,
2013-02-10 03:52:00,39.8,37.0,29.26,ESE,102,4.0,13.0,88,0.02,,,0.02,weatherlink.com 1.10,2013-02-10 09:52:00,
2013-02-10 04:07:00,40.0,37.0,29.25,East,87,9.0,15.0,88,0.02,,,0.02,weatherlink.com 1.10,2013-02-10 10:07:00,
2013-02-10 04:22:00,40.3,37.0,29.22,East,95,9.0,17.0,88,0.01,,,0.02,weatherlink.com 1.10,2013-02-10 10:22:00,
2013-02-10 04:37:00,40.6,37.0,29.21,East,96,14.0,16.0,87,0.01,,,0.02,weatherlink.com 1.10,2013-02-10 10:37:00,
2013-02-10 04:52:00,41.0,37.0,29.21,ESE,113,9.0,14.0,87,0.00,,,0.02,weatherlink.com 1.10,2013-02-10 10:52:00,
2013-02-10 05:07:00,41.5,38.0,29.22,East,80,7.0,15.0,86,0.00,,,0.02,weatherlink.com 1.10,2013-02-10 11:07:00,
2013-02-10 05:22:00,41.5,38.0,29.19,East,93,7.0,16.0,86,0.00,,,0.02,weatherlink.com 1.10,2013-02-10 11:22:00,
2013-02-10 05:37:00,41.7,38.0,29.20,SE,124,4.0,13.0,86,0.00,,,0.02,weatherlink.com 1.10,2013-02-10 11:37:00,
2013-02-10 05:52:00,41.8,38.0,29.20,East,82,7.0,14.0,86,0.00,,,0.02,weatherlink.com 1.10,2013-02-10 11:52:00,
2013-02-10 06:07:00,42.0,38.0,29.20,ESE,105,8.0,13.0,86,0.00,,,0.02,weatherlink.com 1.10,2013-02-10 12:07:00,
2013-02-10 06:22:00,42.3,38.0,29.19,SE,127,10.0,14.0,86,0.00,,,0.02,weatherlink.com 1.10,2013-02-10 12:22:00,
2013-02-10 06:38:00,42.6,39.0,29.18,ESE,120,9.0,11.0,86,0.00,,,0.02,weatherlink.com 1.10,2013-02-10 12:38:00,
2013-02-10 06:53:00,43.2,39.0,29.17,East,101,7.0,15.0,85,0.00,,,0.02,weatherlink.com 1.10,2013-02-10 12:53:00,
2013-02-10 07:08:00,43.7,40.0,29.16,SSE,150,8.0,17.0,85,0.00,,,0.02,weatherlink.com 1.10,2013-02-10 13:08:00,
2013-02-10 07:23:00,43.7,40.0,29.17,ENE,63,6.0,15.0,86,0.00,,,0.02,weatherlink.com 1.10,2013-02-10 13:23:00,
2013-02-10 07:38:00,43.7,40.0,29.16,ESE,121,10.0,18.0,86,0.01,,,0.03,weatherlink.com 1.10,2013-02-10 13:38:00,
2013-02-10 07:53:00,43.2,41.0,29.17,SE,127,6.0,15.0,90,0.05,,,0.07,weatherlink.com 1.10,2013-02-10 13:53:00,
2013-02-10 08:08:00,43.4,41.0,29.17,South,186,5.0,10.0,90,0.07,,,0.09,weatherlink.com 1.10,2013-02-10 14:08:00,
2013-02-10 08:23:00,43.4,41.0,29.17,SE,135,7.0,13.0,90,0.11,,,0.13,weatherlink.com 1.10,2013-02-10 14:23:00,
2013-02-10 08:38:00,43.4,41.0,29.16,ESE,120,11.0,14.0,91,0.17,,,0.20,weatherlink.com 1.10,2013-02-10 14:38:00,
2013-02-10 08:53:00,43.8,42.0,29.14,ESE,121,10.0,12.0,92,0.19,,,0.26,weatherlink.com 1.10,2013-02-10 14:53:00,
2013-02-10 09:08:00,44.1,42.0,29.12,East,100,10.0,18.0,92,0.21,,,0.30,weatherlink.com 1.10,2013-02-10 15:08:00,
2013-02-10 09:23:00,44.8,43.0,29.11,SE,134,9.0,25.0,92,0.20,,,0.33,weatherlink.com 1.10,2013-02-10 15:23:00,
2013-02-10 09:38:00,45.2,43.0,29.10,SE,129,8.0,19.0,92,0.13,,,0.34,weatherlink.com 1.10,2013-02-10 15:38:00,
2013-02-10 09:53:00,45.4,43.0,29.08,ESE,102,9.0,22.0,92,0.08,,,0.34,weatherlink.com 1.10,2013-02-10 15:53:00,
2013-02-10 10:09:00,45.7,44.0,29.08,ESE,114,11.0,20.0,92,0.03,,,0.34,weatherlink.com 1.10,2013-02-10 16:09:00,
2013-02-10 10:23:00,46.3,44.0,29.06,WSW,257,9.0,22.0,92,0.03,,,0.36,weatherlink.com 1.10,2013-02-10 16:23:00,
2013-02-10 10:38:00,46.9,45.0,29.05,SE,127,11.0,24.0,92,0.03,,,0.37,weatherlink.com 1.10,2013-02-10 16:38:00,
2013-02-10 10:53:00,47.8,45.0,29.05,East,89,5.0,18.0,91,0.03,,,0.37,weatherlink.com 1.10,2013-02-10 16:53:00,
2013-02-10 11:08:00,48.6,46.0,29.05,SSE,149,5.0,15.0,90,0.03,,,0.37,weatherlink.com 1.10,2013-02-10 17:08:00,
2013-02-10 11:23:00,49.6,46.0,29.05,ESE,103,7.0,19.0,88,0.01,,,0.37,weatherlink.com 1.10,2013-02-10 17:23:00,
2013-02-10 11:38:00,50.1,46.0,29.03,ESE,115,13.0,18.0,87,0.00,,,0.37,weatherlink.com 1.10,2013-02-10 17:38:00,
2013-02-10 11:53:00,49.5,46.0,29.03,SE,124,8.0,17.0,87,0.00,,,0.37,weatherlink.com 1.10,2013-02-10 17:53:00,
2013-02-10 12:08:00,49.4,46.0,29.02,SSE,150,6.0,18.0,87,0.00,,,0.37,weatherlink.com 1.10,2013-02-10 18:08:00,
2013-02-10 12:23:00,49.3,46.0,28.99,East,93,9.0,19.0,88,0.00,,,0.37,weatherlink.com 1.10,2013-02-10 18:23:00,
2013-02-10 12:38:00,49.2,46.0,28.98,SE,141,7.0,19.0,88,0.00,,,0.37,weatherlink.com 1.10,2013-02-10 18:38:00,
2013-02-10 12:53:00,49.4,46.0,28.97,SE,124,12.0,21.0,89,0.00,,,0.37,weatherlink.com 1.10,2013-02-10 18:53:00,
2013-02-10 13:08:00,49.5,47.0,28.97,SSE,158,12.0,22.0,90,0.00,,,0.37,weatherlink.com 1.10,2013-02-10 19:08:00,
2013-02-10 13:23:00,49.5,47.0,28.98,SSW,197,12.0,13.0,91,0.00,,,0.37,weatherlink.com 1.10,2013-02-10 19:23:00,
2013-02-10 13:38:00,49.7,47.0,28.98,South,173,13.0,18.0,91,0.00,,,0.37,weatherlink.com 1.10,2013-02-10 19:38:00,
2013-02-10 13:53:00,49.7,48.0,28.97,ESE,110,4.0,14.0,92,0.00,,,0.37,weatherlink.com 1.10,2013-02-10 19:53:00,
2013-02-10 14:08:00,49.8,48.0,28.96,SE,139,1.0,9.0,93,0.00,,,0.37,weatherlink.com 1.10,2013-02-10 20:08:00,
2013-02-10 14:24:00,50.4,49.0,28.96,SW,220,0.0,12.0,94,0.00,,,0.37,weatherlink.com 1.10,2013-02-10 20:24:00,
2013-02-10 14:39:00,50.9,49.0,28.95,SSW,203,8.0,10.0,94,0.00,,,0.37,weatherlink.com 1.10,2013-02-10 20:39:00,
2013-02-10 14:54:00,51.4,50.0,28.96,SSE,166,3.0,8.0,94,0.00,,,0.37,weatherlink.com 1.10,2013-02-10 20:54:00,
2013-02-10 15:09:00,52.5,51.0,28.95,South,169,4.0,13.0,93,0.00,,,0.37,weatherlink.com 1.10,2013-02-10 21:09:00,
2013-02-10 15:24:00,53.7,51.0,28.96,SSW,194,8.0,17.0,91,0.00,,,0.37,weatherlink.com 1.10,2013-02-10 21:24:00,
2013-02-10 15:39:00,54.4,52.0,28.95,ESE,111,4.0,13.0,90,0.00,,,0.37,weatherlink.com 1.10,2013-02-10 21:39:00,
2013-02-10 15:54:00,55.1,52.0,28.96,South,188,6.0,15.0,89,0.00,,,0.37,weatherlink.com 1.10,2013-02-10 21:54:00,
2013-02-10 16:09:00,56.6,53.0,28.96,South,177,1.0,10.0,87,0.00,,,0.37,weatherlink.com 1.10,2013-02-10 22:09:00,
2013-02-10 16:24:00,57.5,53.0,28.96,SSE,156,7.0,14.0,84,0.00,,,0.37,weatherlink.com 1.10,2013-02-10 22:24:00,
2013-02-10 16:39:00,57.5,52.0,28.96,SSE,152,9.0,17.0,83,0.00,,,0.37,weatherlink.com 1.10,2013-02-10 22:39:00,
2013-02-10 16:54:00,57.4,52.0,28.96,South,188,6.0,11.0,83,0.00,,,0.37,weatherlink.com 1.10,2013-02-10 22:54:00,
2013-02-10 17:09:00,56.9,52.0,28.97,SE,137,4.0,10.0,84,0.00,,,0.37,weatherlink.com 1.10,2013-02-10 23:09:00,
2013-02-10 17:24:00,56.8,52.0,28.97,SE,128,1.0,9.0,84,0.00,,,0.37,weatherlink.com 1.10,2013-02-10 23:24:00,
2013-02-10 17:39:00,56.1,52.0,28.98,SSE,160,4.0,10.0,85,0.00,,,0.37,weatherlink.com 1.10,2013-02-10 23:39:00,
2013-02-10 17:54:00,56.0,52.0,28.99,SSE,160,2.0,11.0,85,0.00,,,0.37,weatherlink.com 1.10,2013-02-10 23:54:00,
2013-02-10 18:09:00,55.8,52.0,28.99,SSE,167,5.0,11.0,86,0.00,,,0.37,weatherlink.com 1.10,2013-02-11 00:09:00,
2013-02-10 18:24:00,55.2,51.0,29.00,SSE,165,6.0,9.0,87,0.00,,,0.37,weatherlink.com 1.10,2013-02-11 00:24:00,
2013-02-10 18:39:00,54.5,51.0,29.00,SSE,161,4.0,9.0,89,0.00,,,0.37,weatherlink.com 1.10,2013-02-11 00:39:00,
2013-02-10 18:54:00,54.6,49.0,29.01,WSW,249,6.0,13.0,82,0.00,,,0.37,weatherlink.com 1.10,2013-02-11 00:54:00,
2013-02-10 19:09:00,55.7,42.0,29.02,SW,228,12.0,18.0,60,0.00,,,0.37,weatherlink.com 1.10,2013-02-11 01:09:00,
2013-02-10 19:24:00,56.1,36.0,29.02,SW,218,10.0,18.0,47,0.00,,,0.37,weatherlink.com 1.10,2013-02-11 01:24:00,
2013-02-10 19:39:00,56.2,33.0,29.02,WSW,243,9.0,15.0,42,0.00,,,0.37,weatherlink.com 1.10,2013-02-11 01:39:00,
2013-02-10 19:54:00,56.5,32.0,29.03,WSW,255,14.0,27.0,39,0.00,,,0.37,weatherlink.com 1.10,2013-02-11 01:54:00,
2013-02-10 20:09:00,56.2,32.0,29.04,SW,217,5.0,18.0,40,0.00,,,0.37,weatherlink.com 1.10,2013-02-11 02:09:00,
2013-02-10 20:24:00,55.6,31.0,29.04,WSW,239,8.0,18.0,40,0.00,,,0.37,weatherlink.com 1.10,2013-02-11 02:24:00,
2013-02-10 20:39:00,55.1,31.0,29.05,WSW,241,9.0,15.0,40,0.00,,,0.37,weatherlink.com 1.10,2013-02-11 02:39:00,
2013-02-10 20:54:00,55.0,31.0,29.06,WSW,249,12.0,21.0,40,0.00,,,0.37,weatherlink.com 1.10,2013-02-11 02:54:00,
2013-02-10 21:09:00,54.9,31.0,29.06,West,276,16.0,25.0,40,0.00,,,0.37,weatherlink.com 1.10,2013-02-11 03:09:00,
2013-02-10 21:24:00,54.3,31.0,29.06,SSW,205,16.0,27.0,41,0.00,,,0.37,weatherlink.com 1.10,2013-02-11 03:24:00,
2013-02-10 21:39:00,53.6,30.0,29.06,West,259,7.0,24.0,41,0.00,,,0.37,weatherlink.com 1.10,2013-02-11 03:39:00,
2013-02-10 21:54:00,53.2,30.0,29.07,SW,226,11.0,27.0,42,0.00,,,0.37,weatherlink.com 1.10,2013-02-11 03:54:00,
2013-02-10 22:09:00,52.8,30.0,29.07,SSE,151,15.0,23.0,42,0.00,,,0.37,weatherlink.com 1.10,2013-02-11 04:09:00,
2013-02-10 22:24:00,52.4,31.0,29.08,SW,225,14.0,21.0,44,0.00,,,0.37,weatherlink.com 1.10,2013-02-11 04:24:00,
2013-02-10 22:39:00,52.1,31.0,29.08,WSW,255,11.0,23.0,44,0.00,,,0.37,weatherlink.com 1.10,2013-02-11 04:39:00,
2013-02-10 22:54:00,51.6,31.0,29.09,SW,221,14.0,29.0,45,0.00,,,0.37,weatherlink.com 1.10,2013-02-11 04:54:00,
2013-02-10 23:09:00,51.0,31.0,29.10,WSW,250,16.0,27.0,47,0.00,,,0.37,weatherlink.com 1.10,2013-02-11 05:09:00,
2013-02-10 23:24:00,50.1,32.0,29.11,West,263,24.0,27.0,51,0.00,,,0.37,weatherlink.com 1.10,2013-02-11 05:24:00,
2013-02-10 23:39:00,48.2,33.0,29.13,WNW,301,8.0,29.0,55,0.00,,,0.37,weatherlink.com 1.10,2013-02-11 05:39:00,
2013-02-10 23:54:00,47.1,31.0,29.14,WSW,250,15.0,31.0,55,0.00,,,0.37,weatherlink.com 1.10,2013-02-11 05:54:00,